[[{"header":{"parameterUnit":"m.s-1","parameterCategory":1,"la1":30.2991,"la2":30.254,"lo1":-89.0895,"lo2":-89.0444,"dy":0.0017,"dx":0.0017,"nx":28,"ny":28,"refTime":"2024-12-24T09:00:00:Z","depth":0,"parameterNumber":2,"parameterNumberName":"U-component_of_WINDS"},"data":[0,0,0,0,0,0,0,0,0,0,0,0,0,0,0,0,0,0,0,0,0,0,0,0,0,0,0,0,0,0,0,0,0,0,0,0,0,0,0,0,0,0,0,0,0,0,0,0,0,0,0,0,0,0,0,0,0,0,-3.1898,-3.1899,0,-3.1991,-3.1992,-3.1993,-3.1892,-3.1888,-3.1884,-3.1881,-3.198,-3.1986,-3.1992,0,0,0,0,0,0,0,0,0,0,0,0,0,-3.1635,-3.164,-3.1898,-3.1899,-3.19,-3.1991,-3.1992,-3.1994,-3.1893,-3.1888,-3.1883,-3.1879,-3.1978,-3.1986,-3.1993,0,0,0,0,0,0,0,0,0,0,0,0,0,-3.1741,-3.1642,-3.1898,-3.1861,-3.1858,-3.1991,-3.1992,-3.1994,-3.1894,-3.1888,-3.1882,-3.1877,-3.1976,-3.1985,-3.1994,-3.2169,0,0,-3.2023,-3.2027,0,0,0,0,0,0,0,0,-3.1735,-3.1751,-3.1865,-3.1863,-3.1861,-3.1924,-3.1936,-3.2053,-3.1895,-3.1881,-3.1881,-3.1874,-3.1966,-3.1976,-3.2007,-3.2173,-3.2178,-3.2024,-3.2029,-3.2033,-3.2036,0,0,0,0,0,0,0,-3.1728,-3.1746,-3.1935,-3.1867,-3.1864,-3.184,-3.1849,-3.1958,-3.1955,-3.1881,-3.1874,-3.1886,-3.1964,-3.1998,-3.2008,-3.2179,-3.2023,-3.2032,-3.2038,-3.2041,-3.2494,-3.2501,0,0,0,0,0,0,-3.1724,-3.1741,-3.1932,-3.1938,-3.1782,-3.185,-3.1859,-3.191,-3.1954,-3.1955,-3.1891,-3.1881,-3.1985,-3.1997,-3.2011,-3.222,-3.2033,-3.2042,-3.2047,-3.2488,-3.2496,-3.2503,0,0,0,0,0,0,-3.1719,-3.1742,-3.1928,-3.1837,-3.1859,-3.1861,-3.1918,-3.1915,-3.1948,-3.1961,-3.196,-3.1926,-3.1981,-3.1998,-3.213,-3.2222,-3.2046,-3.2055,-3.2481,-3.249,-3.2499,-3.2637,0,0,0,0,0,0,-3.1712,-3.1741,-3.1807,-3.184,-3.1864,-3.2045,-3.1923,-3.1921,-3.1964,-3.1952,-3.1993,-3.1995,-3.1977,-3.2117,-3.214,-3.2231,-3.2062,-3.2472,-3.2485,-3.2496,-3.2625,-3.265,-3.2672,0,0,0,0,0,-3.1703,-3.1843,-3.1811,-3.1834,-3.1946,-3.205,-3.2065,-3.2041,-3.1972,-3.2039,-3.2047,-3.1993,-3.2207,-3.2131,-3.2156,-3.2252,-3.2467,-3.2481,-3.2495,-3.2614,-3.2645,-3.2672,0,0,0,0,0,0,-3.1822,-3.1846,-3.1811,-3.1965,-3.2006,-3.2033,-3.2116,-3.2075,-3.2137,-3.2124,-3.2092,-3.2102,-3.2243,-3.226,-3.2175,-3.2424,-3.2326,-3.2346,-3.2408,-3.2437,-3.2461,-3.2455,-3.207,0,0,0,0,0,-3.1866,-3.1947,-3.1964,-3.2099,-3.2121,-3.2115,-3.216,-3.2138,-3.2179,-3.2197,-3.2215,-3.2258,-3.2335,-3.2387,-3.2458,-3.2626,-3.2634,-3.2704,-3.2728,-3.2748,-3.2766,-3.2857,-3.2889,-3.255,-3.255,-3.255,0,0,-3.1958,-3.1981,-3.2035,-3.2123,-3.2152,-3.2239,-3.2131,-3.2226,-3.229,-3.2212,-3.2337,-3.2352,-3.2399,-3.255,-3.2617,-3.2569,-3.2861,-3.2766,-3.2781,-3.2789,-3.2875,-3.2907,-3.2936,-3.256,-3.2558,-3.2557,0,0,-3.217,-3.2195,-3.231,-3.2342,-3.2387,-3.2382,-3.241,-3.2443,-3.2449,-3.2575,-3.2518,-3.2593,-3.2727,-3.2762,-3.2798,-3.3024,-3.2978,-3.3048,-3.3174,-3.3263,-3.3289,-3.3313,-3.3395,-3.3425,-3.3065,-3.3066,-3.3066,0,-3.228,-3.2406,-3.2375,-3.2475,-3.2516,-3.2447,-3.2564,-3.2596,-3.2663,-3.2694,-3.2638,-3.2804,-3.283,-3.2989,-3.3044,-3.3074,-3.3106,-3.3044,-3.3288,-3.3311,-3.3333,-3.3411,-3.3441,-3.3074,-3.3073,-3.3072,-3.3072,0,-3.2539,-3.2628,-3.2715,-3.2781,-3.2831,-3.2939,-3.2926,-3.2981,-3.2954,-3.2956,-3.3085,-3.3114,-3.3191,-3.3226,-3.3201,-3.3382,-3.3351,-3.3292,-3.3194,-3.3374,-3.3447,-3.3476,-3.3086,-3.3083,-3.3081,-3.3079,0,0,-3.2831,-3.2876,-3.291,-3.2939,-3.2983,-3.3052,-3.3157,-3.323,-3.3279,-3.3327,-3.3416,-3.3529,-3.3475,-3.3516,-3.3494,-3.3572,-3.3751,-3.3504,-3.3504,-3.355,-3.3953,-3.3999,-3.4034,-3.3719,-3.3725,-3.3729,-3.395,0,-3.3045,-3.3226,-3.3201,-3.3376,-3.3459,-3.3394,-3.3485,-3.3523,-3.3527,-3.3599,-3.3603,-3.3685,-3.3606,-3.363,-3.3704,-3.3713,-3.3832,-3.3697,-3.3803,-3.3808,-3.3796,-3.4072,-3.412,-3.4327,-3.3978,-3.3983,-3.3986,0,-3.332,-3.3377,-3.356,-3.3592,-3.3625,-3.3708,-3.3774,-3.3842,-3.3884,-3.3881,-3.3927,-3.3891,-3.3998,-3.3896,-3.4043,-3.3952,-3.3994,-3.4005,-3.4012,-3.4023,-3.391,-3.4092,-3.4392,-3.4424,-3.4031,-3.4027,-3.4024,0,-3.3517,-3.3639,-3.3764,-3.3791,-3.3831,-3.3891,-3.3911,-3.3946,-3.3992,-3.405,-3.408,-3.4149,-3.4188,-3.4244,-3.4228,-3.4155,-3.438,-3.4276,-3.4383,-3.4383,-3.4435,-3.4432,-3.4748,-3.4459,-3.4458,-3.4458,-3.4457,0,-3.376,-3.3875,-3.3853,-3.3931,-3.4058,-3.4028,-3.4155,-3.4167,-3.4199,-3.4279,-3.4227,-3.4303,-3.4277,-3.4352,-3.434,-3.4465,-3.4483,-3.4485,-3.4481,-3.4491,-3.4491,-3.4519,-3.4506,-3.4466,-3.4464,-3.4462,-3.4461,0,-3.4002,-3.3992,-3.4125,-3.4151,-3.416,-3.4253,-3.4276,-3.435,-3.4348,-3.445,-3.4472,-3.4472,-3.4557,-3.4547,-3.4642,-3.4635,-3.479,-3.4768,-3.4776,-3.4772,-3.488,-3.4871,-3.5227,-3.5273,-3.4952,-3.4955,-3.4957,0,-3.4159,-3.4246,-3.4281,-3.433,-3.4353,-3.4433,-3.4479,-3.4453,-3.4504,-3.4558,-3.4625,-3.4706,-3.4769,-3.4909,-3.4918,-3.4991,-3.4971,-3.5091,-3.4982,-3.499,-3.4976,-3.4972,-3.4981,-3.5114,-3.5117,-3.512,-3.5123,0,-3.4439,-3.443,-3.4498,-3.4565,-3.4621,-3.4673,-3.472,-3.4763,-3.4741,-3.4801,-3.4887,-3.4936,-3.5033,-3.5115,-3.5184,-3.5205,-3.5162,-3.5156,-3.5185,-3.5198,-3.52,-3.5202,-3.4837,-3.5149,-3.5146,-3.5144,-3.5143,-3.5142,-3.4645,-3.4719,-3.4756,-3.4834,-3.4865,-3.491,-3.4981,-3.4988,-3.5059,-3.5135,-3.5116,-3.5214,-3.5254,-3.5341,-3.537,-3.5447,-3.5403,-3.5445,-3.5456,-3.5467,-3.548,-3.5185,-3.5459,-3.5458,-3.5458,-3.5457,-3.5456,0,-3.4924,-3.4944,-3.5016,-3.5082,-3.5144,-3.5095,-3.5144,-3.5199,-3.5286,-3.5326,-3.5388,-3.5488,-3.5566,-3.5581,-3.5656,-3.5715,-3.5698,-3.5736,-3.5733,-3.5739,-3.5514,-3.5483,-3.575,-3.575,-3.5749,-3.5749,-3.5749,-3.5749,-3.5077,-3.52,-3.5195,-3.5335,-3.5354,-3.5448,-3.5481,-3.5522,-3.5554,-3.5667,-3.5732,-3.574,-3.5771,-3.5847,-3.5917,-3.592,-3.5951,-3.5998,-3.5993,-3.5784,-3.5754,-3.5727,-3.5697,-3.6005,-3.6005,-3.6212,-3.6213,-3.6215]},{"header":{"parameterUnit":"m.s-1","parameterCategory":1,"la1":30.2991,"la2":30.254,"lo1":-89.0895,"lo2":-89.0444,"dy":0.0017,"dx":0.0017,"nx":28,"ny":28,"refTime":"2024-12-24T09:00:00:Z","depth":0,"parameterNumber":3,"parameterNumberName":"V-component_of_WINDS"},"data":[0,0,0,0,0,0,0,0,0,0,0,0,0,0,0,0,0,0,0,0,0,0,0,0,0,0,0,0,0,0,0,0,0,0,0,0,0,0,0,0,0,0,0,0,0,0,0,0,0,0,0,0,0,0,0,0,0,0,-1.6412,-1.6413,0,-1.6512,-1.6513,-1.6514,-1.6574,-1.6574,-1.6574,-1.6574,-1.6672,-1.6674,-1.6677,0,0,0,0,0,0,0,0,0,0,0,0,0,-1.6267,-1.627,-1.6412,-1.6413,-1.6414,-1.6511,-1.6513,-1.6514,-1.6574,-1.6574,-1.6574,-1.6575,-1.6671,-1.6674,-1.6677,0,0,0,0,0,0,0,0,0,0,0,0,0,-1.6345,-1.627,-1.6411,-1.6456,-1.6461,-1.6511,-1.6513,-1.6515,-1.6573,-1.6574,-1.6574,-1.6575,-1.6671,-1.6674,-1.6677,-1.669,0,0,-1.6688,-1.669,0,0,0,0,0,0,0,0,-1.634,-1.635,-1.6448,-1.6453,-1.6458,-1.6531,-1.6498,-1.6573,-1.6573,-1.653,-1.6574,-1.6575,-1.6624,-1.6632,-1.6649,-1.6695,-1.6699,-1.6688,-1.6691,-1.6692,-1.6693,0,0,0,0,0,0,0,-1.6335,-1.6346,-1.6451,-1.6449,-1.6456,-1.6469,-1.648,-1.6512,-1.6574,-1.6534,-1.6539,-1.655,-1.6627,-1.6646,-1.6652,-1.6701,-1.6688,-1.6691,-1.6694,-1.6695,-1.6761,-1.676,0,0,0,0,0,0,-1.6323,-1.6341,-1.6448,-1.6454,-1.6399,-1.6471,-1.6484,-1.6507,-1.6574,-1.6584,-1.655,-1.6552,-1.664,-1.6648,-1.6656,-1.6675,-1.6692,-1.6695,-1.6697,-1.6761,-1.6761,-1.676,0,0,0,0,0,0,-1.632,-1.6332,-1.6444,-1.6399,-1.6414,-1.6473,-1.6498,-1.6509,-1.6527,-1.6585,-1.6596,-1.6558,-1.664,-1.6651,-1.6682,-1.6679,-1.6697,-1.67,-1.6762,-1.6761,-1.6761,-1.6713,0,0,0,0,0,0,-1.6315,-1.633,-1.6337,-1.6399,-1.6416,-1.6469,-1.6498,-1.651,-1.6534,-1.6539,-1.6596,-1.6605,-1.6642,-1.6676,-1.6685,-1.6684,-1.6703,-1.6762,-1.6761,-1.6761,-1.6715,-1.6711,-1.6708,0,0,0,0,0,-1.631,-1.6319,-1.6337,-1.635,-1.6426,-1.6469,-1.6479,-1.6522,-1.6533,-1.654,-1.6577,-1.6604,-1.6678,-1.6679,-1.6689,-1.669,-1.6762,-1.6762,-1.6761,-1.6717,-1.6712,-1.6708,0,0,0,0,0,0,-1.6254,-1.6328,-1.6349,-1.6379,-1.6417,-1.6479,-1.6489,-1.6515,-1.655,-1.6553,-1.6603,-1.6615,-1.664,-1.6668,-1.6668,-1.6705,-1.6723,-1.6724,-1.6686,-1.6682,-1.6678,-1.667,-1.6706,0,0,0,0,0,-1.6246,-1.6276,-1.6338,-1.6358,-1.6377,-1.6429,-1.6449,-1.6479,-1.652,-1.6536,-1.6576,-1.6613,-1.6645,-1.6665,-1.6698,-1.672,-1.6732,-1.6725,-1.6721,-1.6718,-1.6718,-1.673,-1.6728,-1.6758,-1.6758,-1.6758,0,0,-1.6228,-1.6272,-1.6288,-1.6348,-1.6382,-1.641,-1.6442,-1.6471,-1.6492,-1.654,-1.6572,-1.6602,-1.6647,-1.6673,-1.6687,-1.6697,-1.6713,-1.6717,-1.6714,-1.6716,-1.6729,-1.6726,-1.6724,-1.6757,-1.6757,-1.6757,0,0,-1.621,-1.6247,-1.6267,-1.63,-1.6351,-1.6386,-1.639,-1.6448,-1.647,-1.6503,-1.654,-1.6565,-1.6619,-1.6649,-1.6672,-1.6665,-1.669,-1.6674,-1.6654,-1.6665,-1.6663,-1.6661,-1.6657,-1.6655,-1.6674,-1.6674,-1.6674,0,-1.6181,-1.6227,-1.6274,-1.6301,-1.6326,-1.6372,-1.6392,-1.6421,-1.6479,-1.6494,-1.6506,-1.6574,-1.6608,-1.6641,-1.664,-1.6657,-1.6662,-1.6667,-1.666,-1.6658,-1.6657,-1.6654,-1.6653,-1.6672,-1.6672,-1.6672,-1.6672,0,-1.6188,-1.6219,-1.6229,-1.6286,-1.6312,-1.6335,-1.6384,-1.6404,-1.6431,-1.6464,-1.6496,-1.6538,-1.658,-1.659,-1.6616,-1.6627,-1.6631,-1.665,-1.6669,-1.6651,-1.6649,-1.6648,-1.6668,-1.6669,-1.667,-1.667,0,0,-1.6138,-1.622,-1.6223,-1.6248,-1.6307,-1.6331,-1.6356,-1.6398,-1.6414,-1.6452,-1.6473,-1.6517,-1.6535,-1.6561,-1.6591,-1.6601,-1.6591,-1.6619,-1.6621,-1.6611,-1.6604,-1.6588,-1.6586,-1.6609,-1.6609,-1.6609,-1.66,0,-1.6128,-1.6176,-1.6219,-1.625,-1.6279,-1.6323,-1.6344,-1.6381,-1.6412,-1.644,-1.6474,-1.6504,-1.6526,-1.6542,-1.6554,-1.659,-1.659,-1.6591,-1.6627,-1.6628,-1.6613,-1.6586,-1.657,-1.6559,-1.6599,-1.6599,-1.6599,0,-1.6122,-1.616,-1.6195,-1.625,-1.6264,-1.6282,-1.6324,-1.635,-1.6392,-1.6414,-1.6443,-1.6475,-1.6501,-1.6517,-1.6553,-1.6553,-1.657,-1.6589,-1.659,-1.6594,-1.6611,-1.6588,-1.6557,-1.6554,-1.6598,-1.6598,-1.6599,0,-1.6081,-1.614,-1.6168,-1.6189,-1.6255,-1.6266,-1.6294,-1.6338,-1.636,-1.6395,-1.641,-1.6448,-1.6468,-1.6496,-1.6536,-1.6545,-1.6567,-1.6587,-1.6584,-1.6583,-1.6586,-1.6586,-1.6556,-1.6599,-1.6599,-1.6599,-1.6599,0,-1.6064,-1.6083,-1.615,-1.6167,-1.619,-1.6238,-1.6258,-1.629,-1.6328,-1.6351,-1.6391,-1.6411,-1.6464,-1.6489,-1.6521,-1.6545,-1.6554,-1.6571,-1.6579,-1.6567,-1.6565,-1.6578,-1.658,-1.6599,-1.6599,-1.6599,-1.6599,0,-1.6021,-1.6067,-1.6101,-1.6161,-1.6176,-1.6189,-1.624,-1.6257,-1.6291,-1.6319,-1.6328,-1.6381,-1.6413,-1.6457,-1.6502,-1.6524,-1.6543,-1.6557,-1.6529,-1.6534,-1.6528,-1.6527,-1.6506,-1.6505,-1.6548,-1.6548,-1.6548,0,-1.6007,-1.6023,-1.6085,-1.6104,-1.6131,-1.6161,-1.6184,-1.6232,-1.6254,-1.6303,-1.6314,-1.635,-1.6382,-1.6431,-1.6472,-1.6507,-1.6521,-1.6511,-1.6526,-1.6513,-1.6519,-1.6517,-1.6518,-1.6506,-1.6506,-1.6505,-1.6505,0,-1.5977,-1.5999,-1.6032,-1.6072,-1.6099,-1.6133,-1.6168,-1.6181,-1.6235,-1.6258,-1.6293,-1.6317,-1.6364,-1.6399,-1.6439,-1.6466,-1.6493,-1.65,-1.6501,-1.6488,-1.6471,-1.6479,-1.6518,-1.65,-1.65,-1.65,-1.6501,-1.6501,-1.5948,-1.5964,-1.601,-1.6044,-1.6076,-1.6108,-1.6127,-1.6164,-1.6194,-1.6237,-1.6263,-1.6296,-1.6337,-1.6395,-1.642,-1.6445,-1.6456,-1.6458,-1.6458,-1.6458,-1.6453,-1.6468,-1.6453,-1.6453,-1.6453,-1.6454,-1.6454,0,-1.5919,-1.5951,-1.5982,-1.6031,-1.6058,-1.6084,-1.6124,-1.6144,-1.6173,-1.621,-1.624,-1.6279,-1.6313,-1.6356,-1.6393,-1.6404,-1.6418,-1.6412,-1.6411,-1.6417,-1.6442,-1.6437,-1.6401,-1.6401,-1.6401,-1.6401,-1.6401,-1.6401,-1.5907,-1.5935,-1.5962,-1.6006,-1.6037,-1.6071,-1.6091,-1.612,-1.615,-1.6192,-1.6221,-1.625,-1.6289,-1.6328,-1.636,-1.6371,-1.6382,-1.6372,-1.6388,-1.641,-1.6415,-1.6419,-1.6415,-1.6375,-1.6375,-1.636,-1.636,-1.636]}]]